Погода Октябрьский Городок

Погода Октябрьский Городок : погода сейчас, прогноз погоды и архив. Всё, что Вы хотите узнать о погоде Октябрьский Городок!

Поиск расширенной информации на нашем сайте:

Другие новости

Новости СМИ2

Главная страница сайта

Новости сайта

02.10.2013

Напоминаем, что на нашем новом сайте вы можете получить высокодетализированные прогнозы погоды по пунктам России, СНГ и мира (включающие важные для авиации метеовеличины, такие как направление и скорость ветра, видимость, явления погоды, количество и форма облачности, нижняя и верхняя граница облачности), а также ознакомиться с разнообразными материалами по авиационной метеорологии и подборкой полезных ссылок на эту тему.

Сайт Метеоцентр.Азия посвящён разработке технологий оптимизации авиаметеорологического обслуживания, включая проектирование и перспективное создание нескольких автоматизированных авиаметеорологических систем:
- система выпуска высокодетальных прогностических карт явлений погоды для нижнего воздушного пространства по России и ближнему зарубежью;
- система верификации прогнозов TAF (выпускаемых синоптиками официальных АМСГ РФ и ближнего зарубежья) и AUTOTAF (выпускаемых сайтом Метеоцентр.Азия) - выявление ошибок, онлайн-сопоставление с фактической погодой METAR, автоматическое внесение коррективов в прогнозы при резком отклонении фактической погоды от прогноза, подсчёт оправдываемости прогнозов по элементам и в целом;
- система обработки, анализа и отображения авиаметеорологической информации для применения провайдерами метеорологической информации.

Рекомендуем: Закон о принудительном лечении алкоголизма.

Погода Октябрьский Городок - сегодня

Время (UTC), дата Ветер
(°,м/с) 
Видим.   Явления Облачность Т
(°С)
Тd
(°С)
f(%) Тe
(°С)
Pmin
(гПа)
dP
(гПа)
Po
(мм)
O2
(г/м3)
Тmin Tmax R s Состояние
почвы
06 23.04.17 260 (З) 20000 м    8/4 600 м средняя 
[Sc|Ac trans]
+8.3 +4.7 78 +7  1009  1.7  738  288           
09 23.04.17 220 (ЮЗ) 5-10{10}  20000 м    8/8 600 м 
[Sc]
+11.4 +4.3 62 +10  1009.3  0.5  739  285           
12 23.04.17 190 (Ю) 5{11}  20000 м    10/10 600 м 
[Sc]
+10.1 +5.7 74 +9  1009.2  0.1  739  286           
15 23.04.17 080 (В) 20000 м  {дождь}  10/10 600 м 
[Sc]
+8.4 +5.4 81 +9  1008.3  -1.1  738  288    +12  0.4     
18 23.04.17 040 (СВ) 20000 м  слаб. дождь  10/10 600 м 
[Sc]
+7 +5.8 92 +8  1009.1  0.7  738  289           
21 23.04.17 070 (В) 4000 м  дождь  10/10 600 м 
[Sc]
+6.4 +5.7 95 +5  1007.7  -1.5  737  289           
00 24.04.17 050 (СВ) 4000 м  дождь  10/10 300 м 
[Sc]
+5.4 +4.6 95 +6  1004.9  -2.7  735  290           
03 24.04.17 050 (СВ) 10 км  дождь  10/10 300 м 
[Sc]
+5.3 +4.3 93 +4  1000.7  -4.1  732  289  +5.2    20    мокрая 
06 24.04.17 070 (В) 10 км  дождь  10/10 600 м 
[Sc]
+5.6 +4.3 91 +5  998.9  -1.7  731  288           
09 24.04.17 330 (СЗ) 7-10{13}  10 км  дождь  10/10 300 м 
[Sc]
+3.8 +2.3 90 +1  998.6  -0.4  731  290           
12 24.04.17 310 (СЗ) 7-11{14}  10 км  слаб. ливневой дождь  10/10 300 м кучево-дожд. 
[Cb cap]
+4.5 +2.7 88 +2  999.9  3.1  733  290           
15 24.04.17 310 (СЗ) 7-10{15}  20000 м  {ливн. осадки}  9/9 300 м 
[Sc]
+5.1 +1.8 79 +2  1005.9  4.1  736  291    +5.8  14     
18 24.04.17 250 (З) 3{10}  20000 м    ясно 
+2.1 +0 86 +1  1009.5  3.3  738  295           
21 24.04.17 250 (З) 20000 м    ясно 
+1 -0.2 92 +2  1011.2  1.5  740  297           
00 25.04.17 230 (ЮЗ) 20000 м    ясно 
+2.2 +0 85 +3  1012.4  1.3  740  296           
03 25.04.17 270 (З) 20000 м  слаб. дождь  10/10 300 м 
[Ns]
+2.9 +1.7 92 +2  1014.6  2.2  742  296  +0.5      мокрая 
06 25.04.17 220 (ЮЗ) 3{10}  20000 м  {дождь}  10/0 средняя 
[As trans]
+5.4 +2.3 80 +4  1016.4  744  293           
09 25.04.17 240 (ЮЗ) 20000 м    8/6 600 м средняя 
[Sc|Ac trans]
+7.9 +2.3 68 +7  1017.6  1.4  745  291           
12 25.04.17 210 (ЮЗ) 3{14}  20000 м  {дождь}  8/8 600 м кучево-дожд. 
[Cb calv]
+8.2 +1.6 63 +8  1018.4  0.8  745  291           
15 25.04.17 290 (З) 6-10{15}  20000 м  {ливн. осадки}  4/4 600 м 
[Sc diur, vesp]
+5.9 +0.4 68 +4  1021.4  2.7  747  295    +8.9     
18 25.04.17 260 (З) 2{12}  20000 м  {ливн. осадки}  3/3 600 м 
[Sc]
+2.4 -0.9 79 +2  1023.6  1.9  749  299           
21 25.04.17 270 (З) 20000 м    ясно 
+1.6 -1.2 82 +1  1024.9  1.1  750  300           
00 26.04.17 240 (ЮЗ) 20000 м    ясно 
+1.5 -2 78 +2  1025.9  750  301           
03 26.04.17 230 (ЮЗ) 20000 м    4/0 средняя 
[Ac trans]
+1.6 -2.7 73 +2  1027.3  1.3  751  301  +0.7        замёрзшая 
06 26.04.17 240 (ЮЗ) 20000 м    ясно 
+9.1 -0.1 52 +9  1027.9  1.3  752  293           
Время (UTC), дата Ветер
(°,м/с) 
Видим.   Явления Облачность Т
(°С)
Тd
(°С)
f(%) Тe
(°С)
Pmin
(гПа)
dP
(гПа)
Po
(мм)
O2
(г/м3)
Тmin Tmax R s Состояние
почвы

Для получения пояснительной информации подведите курсор к названию столбца.

ПОГОДА Октябрьский Городок - архив

Всё, что Вы хотите узнать о погоде Октябрьский Городок - удобно и подробно!

Выберите нужную дату (начиная с 1 января 2015* года) и нажмите кнопку "Найти".
Будут отображены архивные сводки погоды по пункту Октябрьский Городок, начиная с указанной даты.


Отображать данные в формате CSV (для использования в таблицах Excel)


Внимание! Наш архив погоды предназначен исключительно для личного некоммерческого использования в познавательных целях. Если Вам необходимы официальные справки о состоянии погоды (для производственных, юридических, коммерческих и т.п. целей), обращайтесь в органы Росгидромета.

*Примечание: данная дата относится к архиву по метеостанциям СССР (Россия, СНГ, Балтия).
Архив по метеостанциям Зарубежной Европы и Азии (кроме Китая) хранится 10 дней, по другим регионам земного шара (Китай, Африка, Америка, Австралия, Океания) - 1 день.

Октябрьский Городок - район местоположения метеостанции


Название, широта, долгота, высота метеостанции:
Октябрьский Городок 51.6°ш. 45.4°д. 201 м над ур. моря [Российская Федерация]

Дополнительная информация

В oтличие oт бoльшинства пoгoдных сайтoв мы публикуем пoдрoбную метеoинфoрмацию в детальнoм прoфессиoнальнoм фoрмате.

Характеристики температуры и влажнoсти вoздуха измеряются на высoте 2 м в тени вдали oт зданий и деревьев.
Скoрoсть ветра измеряется на высoте 10 м (на урoвне рoста челoвека скoрoсть ветра ниже в 1.5-2 раза). Если метеoстанция нахoдится в гoрoде или в лесу, тo скoрoсть ветра занижена на 2-4 м/с пo сравнению с oткрытым местoм. Скoрoсть ветра над акватoриями крупных рек и oзёр, а также на вершинах хoлмoв на 2-5 м/с выше, чем в oбычных услoвиях.
Атмoсфернoе давление в разных тoчках местнoсти мoжет значительнo oтличаться oт давления на метеoстанции, в зависимoсти oт услoвий рельефа (при пoдъёме на 10 м давление пoнижается примернo на 1 мм рт.ст.).